Location: Newark
(41.0400°S, 62.7845°W)
Time: 03:41:15
(UTC+00:00)

Vanguard 2 Rocket - Pass Details

Date: 28 November 2021
Orbit: 554 x 3325 km, 32.9° (Epoch: 21 January)

Event Time Altitude Azimuth Distance (km) Brightness Sun altitude
Rises 16:31:22 0° 271° (W) 4,084 10.4 69.2°
Reaches altitude 10° 16:35:51 10° 292° (WNW) 2,621 9.6 68.9°
Maximum altitude 16:39:05 15° 325° (NW) 1,974 9.2 68.7°
Drops below altitude 10° 16:41:47 10° 1° (N) 2,080 9.2 68.4°
Sets 16:44:42 0° 26° (NNE) 2,808 9.6 68.2°
